Weather History for Hamilton Island, Queensland

Change the Weather History Date:

Monday, April 14, 2014

  Actual Average Record
Temperature  
Mean Temperature 75 °F -  
Max Temperature 80 °F - - ()
Min Temperature 70 °F - - ()
Cooling Degree Days 10    
Growing Degree Days 25 (Base 50)    
Moisture  
Dew Point 68 °F    
Average Humidity 73    
Maximum Humidity 89    
Minimum Humidity 58    
Precipitation  
Precipitation 0.00 in - - ()
Sea Level Pressure  
Sea Level Pressure 29.81 in    
Wind  
Wind Speed 13 mph ()    
Max Wind Speed 32 mph    
Max Gust Speed 40 mph    
Visibility 6.2 miles    
Events      
T = Trace of Precipitation, MM = Missing Value Source: Averaged Metar Reports

Daily Weather History Graph

Daily Weather History Graph

Search for Another Location

Airport:

Trip Planner

Search our weather history database for the weather conditions in past years. The results will help you decide how hot, cold, wet, or windy it might be!

Date:

Astronomy

Apr. 14, 2014 Rise Set
Actual Time 6:14 AM AEST 5:54 PM AEST
Civil Twilight 5:52 AM AEST 6:16 PM AEST
Nautical Twilight 5:26 AM AEST 6:42 PM AEST
Astronomical Twilight 5:01 AM AEST 7:07 PM AEST
Moon 5:07 PM AEST (4/14) 4:59 AM AEST (4/14)
Length of Visible Light 12h 23m
Length of Day
11h 39m
Waxing Gibbous, 98% of the Moon is Illuminated
Apr 14
Waxing Gibbous
Apr 15
Full
Apr 22
Last Quarter
Apr 29
New
May 7
First Quarter

Hourly Weather History & Observations

Time (AEST) Temp. Heat Index Dew Point Humidity Pressure Visibility Wind Dir Wind Speed Gust Speed Precip Events Conditions
12:00 AM 72 °F - 67 °F 78% 29.74 in - South 32.2 mph - -  
12:00 AM 71.6 °F - 66.2 °F 83% 29.74 in 6.2 mi South 32.2 mph - N/A   Unknown
12:11 AM 71.6 °F - 66.2 °F 83% 29.74 in 6.2 mi South 28.8 mph 40.3 mph N/A   Unknown
12:30 AM 73.4 °F - 66.2 °F 78% 29.71 in 6.2 mi South 23.0 mph 38.0 mph N/A   Unknown
1:00 AM 73.4 °F - 66.2 °F 78% 29.71 in 6.2 mi South 21.9 mph 33.4 mph N/A   Unknown
1:30 AM 75.2 °F - 66.2 °F 73% 29.74 in 6.2 mi South 12.7 mph 25.3 mph N/A   Unknown
2:00 AM 75.2 °F - 66.2 °F 73% 29.71 in 6.2 mi South 20.7 mph - N/A   Unknown
2:30 AM 75.2 °F - 66.2 °F 73% 29.71 in 6.2 mi South 13.8 mph - N/A   Unknown
3:00 AM 75 °F - 65 °F 64% 29.71 in - South 10.4 mph - -  
3:00 AM 75.2 °F - 66.2 °F 73% 29.71 in 6.2 mi South 10.4 mph - N/A   Unknown
3:30 AM 75.2 °F - 66.2 °F 73% 29.71 in 6.2 mi South 15.0 mph - N/A   Unknown
4:00 AM 75.2 °F - 66.2 °F 73% 29.74 in 6.2 mi South 16.1 mph - N/A   Unknown
4:30 AM 75.2 °F - 66.2 °F 73% 29.74 in 6.2 mi SW 8.1 mph - N/A   Unknown
5:00 AM 75.2 °F - 66.2 °F 73% 29.74 in 6.2 mi West 11.5 mph - N/A   Unknown
5:30 AM 75.2 °F - 66.2 °F 73% 29.74 in 6.2 mi West 6.9 mph - N/A   Unknown
6:00 AM 74 °F - 66 °F 69% 29.77 in - NW 3.5 mph - -  
6:00 AM 73.4 °F - 66.2 °F 78% 29.77 in 6.2 mi NW 3.5 mph - N/A   Unknown
6:30 AM 75.2 °F - 66.2 °F 73% 29.77 in 6.2 mi Calm Calm - N/A   Unknown
7:00 AM 73.4 °F - 66.2 °F 78% 29.80 in 6.2 mi SSW 2.3 mph - N/A   Unknown
7:30 AM 75.2 °F - 66.2 °F 73% 29.80 in 6.2 mi NNW 6.9 mph - N/A   Unknown
8:00 AM 75.2 °F - 68.0 °F 78% 29.80 in 6.2 mi NNW 5.8 mph - N/A   Unknown
8:30 AM 77.0 °F - 68.0 °F 74% 29.83 in 6.2 mi West 6.9 mph - N/A   Unknown
9:00 AM 77 °F - 67 °F 65% 29.84 in - WSW 8.1 mph - -  
9:00 AM 77.0 °F - 68.0 °F 74% 29.83 in 6.2 mi WSW 8.1 mph - N/A   Unknown
9:30 AM 78.8 °F - 66.2 °F 65% 29.83 in 6.2 mi South 5.8 mph - N/A   Unknown
10:00 AM 78.8 °F - 68.0 °F 69% 29.83 in 6.2 mi South 10.4 mph - N/A   Unknown
10:30 AM 78.8 °F - 68.0 °F 69% 29.86 in 6.2 mi SSE 11.5 mph - N/A   Unknown
11:00 AM 80.6 °F 83.2 °F 68.0 °F 65% 29.83 in 6.2 mi South 9.2 mph - N/A   Unknown
11:30 AM 80.6 °F 83.2 °F 68.0 °F 65% 29.83 in 6.2 mi South 11.5 mph - N/A   Unknown
12:00 PM 80 °F - 68 °F 58% 29.83 in - SSE 9.2 mph - -  
12:00 PM 80.6 °F 83.2 °F 68.0 °F 65% 29.83 in 6.2 mi SSE 9.2 mph - N/A   Unknown
12:30 PM 80.6 °F 82.7 °F 66.2 °F 61% 29.80 in 6.2 mi SSE 10.4 mph - N/A   Unknown
1:00 PM 80.6 °F 83.9 °F 69.8 °F 70% 29.80 in 6.2 mi SE 9.2 mph - N/A   Unknown
1:30 PM 80.6 °F 83.9 °F 69.8 °F 70% 29.80 in 6.2 mi SE 9.2 mph - N/A   Unknown
2:00 PM 80.6 °F 83.9 °F 69.8 °F 70% 29.80 in 6.2 mi SE 9.2 mph - N/A   Unknown
2:30 PM 80.6 °F 83.2 °F 68.0 °F 65% 29.80 in 6.2 mi ESE 10.4 mph - N/A   Unknown
3:00 PM 80 °F - 68 °F 59% 29.80 in - ESE 8.1 mph - -  
3:00 PM 80.6 °F 83.2 °F 68.0 °F 65% 29.80 in 6.2 mi ESE 8.1 mph - N/A   Unknown
3:30 PM 78.8 °F - 66.2 °F 65% 29.80 in 6.2 mi East 11.5 mph - N/A   Unknown
4:00 PM 78.8 °F - 66.2 °F 65% 29.80 in 6.2 mi East 13.8 mph - N/A   Unknown
4:30 PM 78.8 °F - 68.0 °F 69% 29.80 in 6.2 mi East 12.7 mph - N/A   Unknown
5:00 PM 77.0 °F - 68.0 °F 74% 29.80 in 6.2 mi East 12.7 mph - N/A   Unknown
5:30 PM 77.0 °F - 68.0 °F 74% 29.83 in 6.2 mi East 10.4 mph - N/A   Unknown
6:00 PM 77 °F - 69 °F 69% 29.83 in - East 10.4 mph - -  
6:00 PM 77.0 °F - 68.0 °F 74% 29.83 in 6.2 mi East 10.4 mph - N/A   Unknown
6:30 PM 77.0 °F - 68.0 °F 74% 29.86 in 6.2 mi East 9.2 mph - N/A   Unknown
7:00 PM 77.0 °F - 68.0 °F 74% 29.86 in 6.2 mi East 9.2 mph - N/A   Unknown
7:30 PM 77.0 °F - 69.8 °F 78% 29.86 in 6.2 mi East 8.1 mph - N/A   Unknown
8:00 PM 77.0 °F - 69.8 °F 78% 29.89 in 6.2 mi ESE 8.1 mph - N/A   Unknown
8:30 PM 75.2 °F - 69.8 °F 83% 29.89 in 6.2 mi ENE 5.8 mph - N/A   Unknown
9:00 PM 76 °F - 69 °F 74% 29.91 in - ENE 3.5 mph - -  
9:00 PM 75.2 °F - 69.8 °F 83% 29.92 in 6.2 mi ENE 3.5 mph - N/A   Unknown
9:30 PM 75.2 °F - 69.8 °F 83% 29.92 in 6.2 mi Calm Calm - N/A   Unknown
10:00 PM 75.2 °F - 71.6 °F 89% 29.92 in 6.2 mi Calm Calm - N/A   Unknown
10:30 PM 75.2 °F - 71.6 °F 89% 29.92 in 6.2 mi Calm Calm - N/A   Unknown
11:00 PM 75.2 °F - 71.6 °F 89% 29.89 in 6.2 mi Calm Calm - N/A   Unknown
11:30 PM 75.2 °F - 71.6 °F 89% 29.89 in 6.2 mi Calm Calm - N/A   Unknown